STARLINK-34423, 64460

Orbit data source: Space-Track

STARLINK-34423, 64460 is a payload satellite owned by SpaceX/Seattle (US) in LEO that was launched on Wed, 18 Jun 2025 UTC via an FALCON 9 launch vehicle from the Air Force Eastern Test Range (AFETR). Payload-class satellites include a variety of spacecraft equipped with specific instruments for various scientific and technological missions. These include communications satellites like Starlink; space stations such as the ISS; scientific satellites like the Hubble; Earth observation satellites from companies like Planet Labs, Umbra, and HawkEye 360; GPS; miniature CubeSats for education and research; and military/defense satellites.

Loading next visibility...
Identifier
64460, 2025-130Y
Orbit
LEO
Country
Flag of USUS
Related business
Manufacturer
SpaceX/Seattle
Mission
Operational Commercial Communications
Bus & Motor
STARLINK V2MO, Unknown motor
Mass
575 kg wet, ~530 kg dry
Launch date (UTC)
2025-06-18 (1 year ago)
Launch vehicle
FALCON 9
Launch site
Air Force Eastern Test Range (AFETR)
Object type
Payload
Rocket body
Debris
Shape & HBR
Box + 2 Pan, 17.7 m
Radar Cross Section
36.964 m², Large (>1 m²)

Expand to show TLE details & history
Last TLE update: 9 hours ago

TLE from 9 hours ago
0 STARLINK-34423
1 64460U 25130Y   26171.47246786  .00018693  00000-0  64135-3 0  9991
2 64460  53.1601 330.8270 0001710  95.5149 264.6047 15.30215268 56444
Epoch: 2026-06-20T11:20Z
TLE epoch observation values (Epoch: 2026-06-20T11:20:21.223Z)
Latitude
0.00001°
Longitude
-107.94802°
Altitude
476.18 km
Speed
7.629 km/s
True Right ascension
22h 03m 18s
True Declination
0° 00' 00"
Sunlit
Object was in full shadow at epoch
Visualization orbit readout
Latitude
Unknown
Longitude
Unknown
Altitude
Unknown
Speed
Unknown
Apparent Right ascension
Unknown
Apparent Declination
Unknown
Sunlit
N/A
Visualization observer readout
Local Sidereal Time
07:13:18
Azimuth
Unknown
Elevation
Unknown
Doppler factor
Unknown
Orbital elements
Apogee altitude
476.598 km
Perigee altitude
474.254 km
Semi-major axis
6,853.563 km
Eccentricity
0.00017
Inclination
53.1601°
RAAN
330.827°
Arg. of periapsis
95.5149°
True anomaly
264.58519°
Mean anomaly
264.6047°
Eccentric anomaly
264.59495°
Mean motion
3.82533 °/min
Orbital period
94.11 mins
BSTAR
0.00064135
Loading maneuver chart data...
Computing Atmospheric mass density...
Loading historical data...
Loading historical data...
Loading historical data...
Loading historical data...
Loading historical data...
Loading historical data...
Loading historical data...

Documentation

Showing up to 5 results
|